Location: Astronomy Club of Akron Observatory
(40.9700°N, 81.5606°W)
Time: 23:30:44
(UTC-05:00)

ATLAS 2AS CENTAUR R/B - Visible Passes

Search period start: 24 February 2017 00:00
Search period end: 06 March 2017 00:00
Orbit: 907 x 1305 km, 63.7° (Epoch: 18 February)

Date Brightness Start Highest point End Pass type
(mag) Time Alt. Az. Time Alt. Az. Time Alt. Az.
24 Feb 4.9 19:13:05 10° NNW 19:16:57 14° N 19:20:49 10° NE visible
24 Feb 4.3 21:04:35 10° NNW 21:10:18 26° NNE 21:10:18 26° NNE visible
24 Feb 4.9 22:55:20 10° NW 22:57:44 22° NNW 22:57:44 22° NNW visible
25 Feb 4.4 20:19:50 10° NNW 20:25:39 21° NNE 20:27:03 20° NE visible
25 Feb 4.4 22:10:30 10° NNW 22:14:30 31° NNW 22:14:30 31° NNW visible
26 Feb 4.7 19:34:58 10° NNW 19:39:57 17° NNE 19:43:50 12° NE visible
26 Feb 4.0 21:25:45 10° NNW 21:31:16 36° N 21:31:16 36° N visible
26 Feb 5.1 23:16:57 10° NW 23:18:43 18° NW 23:18:43 18° NW visible
27 Feb 4.8 18:49:54 10° NNW 18:54:06 15° N 18:58:16 10° NE visible
27 Feb 3.9 20:41:02 10° NNW 20:48:05 31° NE 20:48:05 31° NE visible
27 Feb 4.5 22:31:53 10° NW 22:35:32 30° NW 22:35:32 30° NW visible
28 Feb 4.2 19:56:18 10° NNW 20:02:37 24° NNE 20:04:56 21° NE visible
28 Feb 3.8 21:47:00 10° NNW 21:52:22 45° NNW 21:52:22 45° NNW visible
28 Feb 5.4 23:39:16 10° WNW 23:39:50 12° WNW 23:39:50 12° WNW visible
01 Mar 4.6 19:11:31 10° NNW 19:17:00 19° NNE 19:21:48 11° ENE visible
01 Mar 3.4 21:02:13 10° NNW 21:09:16 50° NNE 21:09:16 50° NNE visible
01 Mar 4.8 22:53:41 10° NW 22:56:43 23° WNW 22:56:43 23° WNW visible
02 Mar 3.6 20:17:29 10° NNW 20:24:54 37° NE 20:26:11 35° ENE visible
02 Mar 4.0 22:08:31 10° NW 22:13:39 41° WNW 22:13:39 41° WNW visible
03 Mar 4.1 19:32:45 10° NNW 19:39:32 28° NE 19:43:10 20° ENE visible
03 Mar 3.1 21:23:32 10° NW 21:30:38 71° NW 21:30:38 71° NW visible
03 Mar 5.2 23:16:33 10° WNW 23:18:06 14° WNW 23:18:06 14° WNW visible
04 Mar 4.4 18:48:01 10° NNW 18:54:00 22° NNE 18:59:47 10° ENE visible
04 Mar 2.9 20:38:42 10° NNW 20:46:44 64° NE 20:47:40 60° E visible
04 Mar 4.6 22:30:35 10° NW 22:35:07 26° W 22:35:07 26° W visible
05 Mar 3.4 19:53:55 10° NNW 20:01:39 45° NE 20:04:46 32° E visible
05 Mar 3.7 21:45:12 10° NW 21:52:14 46° WSW 21:52:14 46° WSW visible
